Weather History for Columbia Airport, CA

Change the Weather History Date:

Friday, August 16, 2013

  Actual Average (KMOD) Record (KMOD)
Temperature  
Mean Temperature 76 °F -  
Max Temperature 98 °F 94 °F 104 °F (1992)
Min Temperature 55 °F 62 °F 49 °F (1949)
Degree Days  
Heating Degree Days 0 0  
Month to date heating degree days 0  
Since 1 June heating degree days 3  
Since 1 July heating degree days 0  
Cooling Degree Days 12 13  
Month to date cooling degree days 217  
Year to date cooling degree days 1152  
Since 1 June cooling degree days 953  
Growing Degree Days 26 (Base 50)    
Moisture  
Dew Point 37 °F    
Average Humidity 28    
Maximum Humidity 52    
Minimum Humidity 6    
Precipitation  
Precipitation 0.00 in 0.00 in 0.00 in (2014)
Month to date precipitation 0.01  
Year to date precipitation 8.76  
Since 1 July precipitation 0.01  
Snow  
Snow 0.00 in - - ()
Month to date snowfall  
Since 1 June snowfall  
Since 1 July snowfall  
Snow Depth -    
Sea Level Pressure  
Sea Level Pressure 30.01 in    
Wind  
Wind Speed 3 mph (West)    
Max Wind Speed 10 mph    
Max Gust Speed 17 mph    
Visibility 10 miles    
Events      
T = Trace of Precipitation, MM = Missing Value Source: NWS Daily Summary

Daily Weather History Graph

Daily Weather History Graph

Search for Another Location

Airport:

Trip Planner

Search our weather history database for the weather conditions in past years. The results will help you decide how hot, cold, wet, or windy it might be!

Date:

Astronomy

Aug. 16, 2013 Rise Set
Actual Time 6:17 AM PDT 7:53 PM PDT
Civil Twilight 5:49 AM PDT 8:21 PM PDT
Nautical Twilight 5:16 AM PDT 8:54 PM PDT
Astronomical Twilight 4:40 AM PDT 9:30 PM PDT
Moon 4:15 PM PDT (8/16) 1:27 AM PDT (8/16)
Length of Visible Light 14h 31m
Length of Day
13h 35m
Waxing Gibbous, 76% of the Moon is Illuminated
Aug 16
Waxing Gibbous
Aug 20
Full
Aug 28
Last Quarter
Sep 5
New
Sep 12
First Quarter

Hourly Weather History & Observations

Time (PDT) Temp. Dew Point Humidity Pressure Visibility Wind Dir Wind Speed Gust Speed Precip Events Conditions
12:15 AM 60.8 °F 41.0 °F 48% 30.01 in 10.0 mi Calm Calm - N/A   Clear
12:35 AM 59.0 °F 41.0 °F 51% 30.00 in 10.0 mi Calm Calm - N/A   Clear
12:55 AM 59.0 °F 41.0 °F 51% 30.00 in 10.0 mi Calm Calm - N/A   Clear
1:15 AM 59.0 °F 39.2 °F 48% 30.00 in 10.0 mi NE 3.5 mph - N/A   Clear
1:35 AM 59.0 °F 39.2 °F 48% 30.00 in 10.0 mi NE 3.5 mph - N/A   Clear
1:55 AM 59.0 °F 39.2 °F 48% 30.00 in 10.0 mi Calm Calm - N/A   Clear
2:15 AM 57.2 °F 37.4 °F 48% 29.99 in 10.0 mi Calm Calm - N/A   Clear
2:35 AM 57.2 °F 37.4 °F 48% 29.99 in 10.0 mi Calm Calm - N/A   Clear
2:55 AM 57.2 °F 37.4 °F 48% 29.99 in 10.0 mi Calm Calm - N/A   Clear
3:15 AM 55.4 °F 37.4 °F 51% 30.00 in 10.0 mi Calm Calm - N/A   Clear
3:35 AM 55.4 °F 35.6 °F 47% 30.00 in 10.0 mi Calm Calm - N/A   Clear
3:55 AM 55.4 °F 35.6 °F 47% 30.00 in 10.0 mi Calm Calm - N/A   Clear
4:15 AM 55.4 °F 33.8 °F 44% 29.99 in 10.0 mi Calm Calm - N/A   Clear
4:35 AM 55.4 °F 32.0 °F 41% 29.99 in 10.0 mi Calm Calm - N/A   Clear
4:55 AM 55.4 °F 32.0 °F 41% 29.99 in 10.0 mi Calm Calm - N/A   Clear
5:15 AM 55.4 °F 32.0 °F 41% 29.99 in 10.0 mi NE 3.5 mph - N/A   Clear
5:35 AM 55.4 °F 32.0 °F 41% 30.00 in 10.0 mi Calm Calm - N/A   Clear
5:55 AM 55.4 °F 32.0 °F 41% 30.00 in 10.0 mi NE 3.5 mph - N/A   Clear
6:15 AM 55.4 °F 32.0 °F 41% 30.00 in 10.0 mi Calm Calm - N/A   Clear
6:35 AM 57.2 °F 32.0 °F 38% 30.01 in 10.0 mi Calm Calm - N/A   Clear
6:55 AM 59.0 °F 33.8 °F 39% 30.01 in 10.0 mi Calm Calm - N/A   Clear
7:15 AM 62.6 °F 35.6 °F 37% 30.01 in 10.0 mi Calm Calm - N/A   Clear
7:35 AM 66.2 °F 37.4 °F 35% 30.01 in 10.0 mi Calm Calm - N/A   Clear
7:55 AM 71.6 °F 39.2 °F 31% 30.02 in 10.0 mi Calm Calm - N/A   Clear
8:15 AM 75.2 °F 39.2 °F 27% 30.02 in 10.0 mi Calm Calm - N/A   Clear
8:35 AM 80.6 °F 39.2 °F 23% 30.02 in 10.0 mi Calm Calm - N/A   Clear
8:55 AM 82.4 °F 32.0 °F 16% 30.02 in 10.0 mi Calm Calm - N/A   Clear
9:15 AM 84.2 °F 32.0 °F 15% 30.02 in 10.0 mi Calm Calm - N/A   Clear
9:35 AM 86.0 °F 32.0 °F 14% 30.02 in 10.0 mi Calm Calm - N/A   Clear
9:55 AM 87.8 °F 32.0 °F 14% 30.02 in 10.0 mi SSW 3.5 mph - N/A   Clear
10:15 AM 89.6 °F 32.0 °F 13% 30.02 in 10.0 mi Calm Calm - N/A   Clear
10:35 AM 91.4 °F 32.0 °F 12% 30.03 in 10.0 mi WSW 5.8 mph - N/A   Clear
10:55 AM 91.4 °F 32.0 °F 12% 30.03 in 10.0 mi West 6.9 mph - N/A   Clear
11:15 AM 91.4 °F 35.6 °F 14% 30.03 in 10.0 mi WSW 8.1 mph - N/A   Clear
11:35 AM 93.2 °F 32.0 °F 11% 30.03 in 10.0 mi West 6.9 mph - N/A   Clear
11:55 AM 93.2 °F 32.0 °F 11% 30.03 in 10.0 mi SSW 6.9 mph - N/A   Clear
12:15 PM 93.2 °F 37.4 °F 14% 30.03 in 10.0 mi West 9.2 mph - N/A   Clear
12:35 PM 95.0 °F 32.0 °F 11% 30.03 in 10.0 mi West 9.2 mph - N/A   Clear
12:55 PM 95.0 °F 26.6 °F 9% 30.02 in 10.0 mi WSW 6.9 mph - N/A   Clear
1:15 PM 95.0 °F 19.4 °F 6% 30.02 in 10.0 mi WSW 5.8 mph - N/A   Clear
1:35 PM 96.8 °F 35.6 °F 12% 30.02 in 10.0 mi WSW 8.1 mph - N/A   Clear
1:55 PM 95.0 °F 32.0 °F 11% 30.02 in 10.0 mi SW 8.1 mph - N/A   Clear
2:15 PM 95.0 °F 32.0 °F 11% 30.02 in 10.0 mi WSW 9.2 mph - N/A   Clear
2:35 PM 95.0 °F 33.8 °F 12% 30.01 in 10.0 mi SW 10.4 mph 17.3 mph N/A   Clear
2:55 PM 96.8 °F 32.0 °F 10% 30.01 in 10.0 mi WSW 9.2 mph 16.1 mph N/A   Clear
3:15 PM 95.0 °F 32.0 °F 11% 30.01 in 10.0 mi WSW 10.4 mph 16.1 mph N/A   Clear
3:35 PM 95.0 °F 32.0 °F 11% 30.00 in 10.0 mi SW 8.1 mph 16.1 mph N/A   Clear
3:55 PM 95.0 °F 32.0 °F 11% 30.00 in 10.0 mi WSW 9.2 mph - N/A   Clear
4:15 PM 98.6 °F 32.0 °F 10% 29.99 in 10.0 mi West 5.8 mph 16.1 mph N/A   Clear
4:35 PM 95.0 °F 32.0 °F 11% 29.99 in 10.0 mi NW 5.8 mph - N/A   Clear
4:55 PM 95.0 °F 32.0 °F 11% 29.99 in 10.0 mi WNW 8.1 mph - N/A   Clear
5:15 PM 95.0 °F 30.2 °F 10% 29.99 in 10.0 mi WSW 8.1 mph - N/A   Clear
5:35 PM 93.2 °F 32.0 °F 11% 29.99 in 10.0 mi WNW 6.9 mph - N/A   Clear
5:55 PM 93.2 °F 33.8 °F 12% 29.98 in 10.0 mi WNW 6.9 mph - N/A   Clear
6:15 PM 91.4 °F 37.4 °F 15% 29.98 in 10.0 mi West 8.1 mph - N/A   Clear
6:35 PM 89.6 °F 39.2 °F 17% 29.98 in 10.0 mi West 6.9 mph - N/A   Clear
6:55 PM 87.8 °F 39.2 °F 18% 29.98 in 10.0 mi NW 5.8 mph - N/A   Clear
7:15 PM 86.0 °F 37.4 °F 18% 29.99 in 10.0 mi NW 5.8 mph - N/A   Clear
7:35 PM 84.2 °F 37.4 °F 19% 30.00 in 10.0 mi NW 5.8 mph - N/A   Clear
7:55 PM 82.4 °F 41.0 °F 23% 30.00 in 10.0 mi NW 6.9 mph - N/A   Clear
8:15 PM 80.6 °F 46.4 °F 30% 30.00 in 10.0 mi NW 4.6 mph - N/A   Clear
8:35 PM 77.0 °F 46.4 °F 34% 30.01 in 10.0 mi NW 4.6 mph - N/A   Clear
8:55 PM 75.2 °F 48.2 °F 38% 30.01 in 10.0 mi North 3.5 mph - N/A   Clear
9:15 PM 73.4 °F 46.4 °F 38% 30.02 in 10.0 mi NNE 3.5 mph - N/A   Clear
9:35 PM 71.6 °F 46.4 °F 41% 30.02 in 10.0 mi Calm Calm - N/A   Clear
9:55 PM 73.4 °F 48.2 °F 41% 30.02 in 10.0 mi NNW 3.5 mph - N/A   Clear
10:15 PM 69.8 °F 46.4 °F 43% 30.02 in 10.0 mi NNE 3.5 mph - N/A   Clear
10:35 PM 68.0 °F 46.4 °F 46% 30.02 in 10.0 mi Calm Calm - N/A   Clear
10:55 PM 66.2 °F 46.4 °F 49% 30.02 in 10.0 mi Calm Calm - N/A   Clear
11:15 PM 66.2 °F 46.4 °F 49% 30.01 in 10.0 mi Calm Calm - N/A   Clear
11:35 PM 66.2 °F 46.4 °F 49% 30.01 in 10.0 mi NE 3.5 mph - N/A   Clear
11:55 PM 64.4 °F 46.4 °F 52% 30.01 in 10.0 mi Calm Calm - N/A   Clear